Change the Weather History Date:

Thursday, November 21, 2013

  Actual Average Record
Temperature  
Mean Temperature 26 °F -  
Max Temperature 36 °F 36 °F 49 °F (1949)
Min Temperature 15 °F 26 °F 7 °F (1963)
Degree Days  
Heating Degree Days 40    
Moisture  
Dew Point 21 °F    
Average Humidity 85    
Maximum Humidity 100    
Minimum Humidity 50    
Precipitation  
Precipitation 0.66 in - - ()
Sea Level Pressure  
Sea Level Pressure 29.44 in    
Wind  
Wind Speed 10 mph (North)    
Max Wind Speed 22 mph    
Max Gust Speed 37 mph    
Visibility 5 miles    
Events Fog , Rain , Snow    
Averages and records for this station are not official NWS values.
T = Trace of Precipitation, MM = Missing Value Source: NWS Daily Summary

Daily Weather History Graph

Daily Weather History Graph

Search for Another Location

Airport or City:

Trip Planner

Search our weather history database for the weather conditions in past years. The results will help you decide how hot, cold, wet, or windy it might be!

Date:

Astronomy

Nov. 21, 2013 Rise Set
Actual Time 9:12 AM AKST 4:14 PM AKST
Civil Twilight 8:20 AM AKST 5:05 PM AKST
Nautical Twilight 7:27 AM AKST 5:59 PM AKST
Astronomical Twilight 6:37 AM AKST 6:48 PM AKST
Moon 8:12 PM AKST (11/21) 12:16 PM AKST (11/21)
Length of Visible Light 8h 44m
Length of Day
7h 01m
Waning Gibbous, 84% of the Moon is Illuminated
Nov 21
Waning Gibbous
Nov 25
Last Quarter
Dec 2
New
Dec 9
First Quarter
Dec 17
Full

Hourly Weather History & Observations

Time (AKST) Temp. Windchill Dew Point Humidity Pressure Visibility Wind Dir Wind Speed Gust Speed Precip Events Conditions
12:53 AM 18.0 °F 1.7 °F 1.9 °F 50% 29.85 in 10.0 mi North 19.6 mph 33.4 mph N/A   Unknown
1:53 AM 17.1 °F 1.5 °F 1.9 °F 52% 29.84 in 10.0 mi NNE 17.3 mph 29.9 mph N/A   Unknown
3:53 AM 15.1 °F -2.9 °F 3.0 °F 59% 29.80 in 10.0 mi North 21.9 mph 36.8 mph N/A   Unknown
4:53 AM 15.1 °F -2.5 °F 3.9 °F 61% 29.78 in 10.0 mi North 20.7 mph 33.4 mph N/A   Unknown
5:53 AM 15.1 °F -1.6 °F 5.0 °F 64% 29.77 in 10.0 mi NNE 18.4 mph 35.7 mph N/A   Unknown
6:53 AM 16.0 °F -1.3 °F 5.0 °F 62% 29.75 in 10.0 mi NNE 20.7 mph 35.7 mph N/A   Unknown
7:53 AM 16.0 °F 0.1 °F 5.0 °F 62% 29.74 in 10.0 mi NNE 17.3 mph 28.8 mph N/A   Unknown
8:53 AM 16.0 °F -0.4 °F 5.0 °F 62% 29.72 in 10.0 mi North 18.4 mph 27.6 mph N/A   Unknown
9:53 AM 16.0 °F 0.1 °F 5.0 °F 62% 29.70 in 10.0 mi NNE 17.3 mph 31.1 mph N/A   Unknown
10:53 AM 16.0 °F 1.7 °F 5.0 °F 62% 29.70 in 10.0 mi North 13.8 mph 23.0 mph N/A   Unknown
11:53 AM 16.0 °F 0.1 °F 8.1 °F 71% 29.67 in 10.0 mi North 17.3 mph 24.2 mph N/A   Unknown
12:53 PM 18.0 °F 6.9 °F 9.0 °F 68% 29.60 in 10.0 mi North 9.2 mph 19.6 mph N/A   Unknown
1:53 PM 19.9 °F 12.1 °F 12.9 °F 74% 29.56 in 8.0 mi North 5.8 mph - 0.00 in Snow Light Snow
2:01 PM 19.4 °F 9.5 °F 14.0 °F 80% 29.55 in 2.5 mi North 8.1 mph - 0.00 in Snow Light Snow
2:18 PM 19.4 °F 9.5 °F 15.8 °F 86% 29.53 in 1.2 mi North 8.1 mph - 0.00 in Snow Light Snow
2:27 PM 19.4 °F 12.8 °F 15.8 °F 86% 29.53 in 0.8 mi NNE 4.6 mph - 0.00 in Snow Light Snow
2:37 PM 19.4 °F 14.3 °F 15.8 °F 86% 29.51 in 0.5 mi Variable 3.5 mph - 0.00 in Fog , Snow Snow
2:53 PM 19.9 °F - 17.1 °F 89% 29.50 in 0.5 mi Calm Calm - 0.00 in Fog , Snow Snow
3:09 PM 19.4 °F - 17.6 °F 93% 29.49 in 0.8 mi Calm Calm - 0.00 in Snow Light Snow
3:19 PM 21.2 °F - 17.6 °F 86% 29.48 in 1.0 mi Calm Calm - 0.00 in Snow Light Snow
3:53 PM 21.0 °F - 19.0 °F 92% 29.44 in 0.8 mi Calm Calm - 0.00 in Snow Light Snow
4:06 PM 21.2 °F 16.4 °F 19.4 °F 93% 29.44 in 1.2 mi Variable 3.5 mph - 0.00 in Snow Light Snow
4:13 PM 21.2 °F - 19.4 °F 93% 29.44 in 3.0 mi Calm Calm - 0.00 in Snow Light Snow
4:28 PM 23.0 °F - 21.2 °F 93% 29.42 in 1.8 mi Calm Calm - 0.00 in Snow Light Snow
4:35 PM 23.0 °F 17.0 °F 21.2 °F 93% 29.41 in 0.8 mi NW 4.6 mph - 0.00 in Snow Light Snow
4:45 PM 23.0 °F - 21.2 °F 93% 29.40 in 0.5 mi Calm Calm - 0.00 in Fog , Snow Snow
4:53 PM 24.1 °F - 21.9 °F 91% 29.40 in 0.5 mi Calm Calm - 0.00 in Fog , Snow Snow
5:08 PM 24.8 °F - 21.2 °F 86% 29.39 in 1.0 mi Calm Calm - 0.00 in Snow Light Snow
5:40 PM 24.8 °F 20.5 °F 24.8 °F 100% 29.34 in 0.8 mi North 3.5 mph - 0.00 in Snow Light Snow
5:49 PM 26.6 °F 20.0 °F 24.8 °F 93% 29.33 in 1.0 mi NE 5.8 mph - 0.00 in Snow Light Snow
5:50 PM 26.1 °F 20.5 °F 24.1 °F 92% 29.34 in 1.0 mi NE 4.6 mph - 0.00 in Snow Light Snow
5:54 PM 26.6 °F - 24.8 °F 93% 29.33 in 1.2 mi Calm Calm - 0.00 in Snow Light Snow
6:30 PM 28.4 °F 24.6 °F 26.6 °F 93% 29.30 in 2.5 mi NW 3.5 mph - 0.00 in Snow Light Snow
6:33 PM 28.4 °F 24.6 °F 26.6 °F 93% 29.29 in 3.0 mi NW 3.5 mph - 0.00 in Snow Light Snow
6:53 PM 30.0 °F - 28.0 °F 92% 29.28 in 10.0 mi Calm Calm - 0.00 in   Overcast
7:00 PM 30.2 °F - 28.4 °F 93% 29.28 in 9.0 mi Calm Calm - 0.00 in Rain Light Freezing Rain
7:19 PM 32.0 °F - 30.2 °F 93% 29.28 in 4.0 mi Calm Calm - 0.00 in Rain Light Freezing Rain
7:29 PM 32.0 °F - 30.2 °F 93% 29.28 in 5.0 mi Calm Calm - N/A Rain Light Freezing Rain
7:36 PM 32.0 °F - 30.2 °F 93% 29.28 in 5.0 mi Calm Calm - N/A Rain Light Freezing Rain
7:53 PM 33.1 °F - 32.0 °F 96% 29.27 in 4.0 mi Calm Calm - N/A Rain Light Freezing Rain
8:05 PM 33.8 °F - 32.0 °F 93% 29.25 in 4.0 mi Calm Calm - 0.02 in Rain Light Freezing Rain
8:12 PM 33.8 °F 28.6 °F 32.0 °F 93% 29.25 in 5.0 mi West 5.8 mph - 0.04 in Rain Rain
8:29 PM 33.8 °F - 33.8 °F 100% 29.25 in 6.0 mi Calm Calm - 0.07 in Rain Rain
8:53 PM 34.0 °F 31.0 °F 33.1 °F 96% 29.24 in 6.0 mi NNE 3.5 mph - 0.13 in Rain Light Rain
9:53 PM 36.0 °F 32.1 °F 34.0 °F 93% 29.22 in 6.0 mi ESE 4.6 mph - 0.21 in Rain Rain
10:29 PM 35.6 °F 31.7 °F 33.8 °F 93% 29.20 in 4.0 mi WSW 4.6 mph - 0.13 in Rain Rain
10:39 PM 35.6 °F 32.8 °F 33.8 °F 93% 29.20 in 4.0 mi SSW 3.5 mph - 0.16 in Rain Rain
10:53 PM 35.1 °F 32.2 °F 34.0 °F 96% 29.20 in 4.0 mi SE 3.5 mph - 0.20 in Rain Rain
11:20 PM 33.8 °F 30.8 °F 33.8 °F 100% 29.19 in 4.0 mi ENE 3.5 mph - 0.07 in Rain Rain
11:40 PM 33.8 °F - 33.8 °F 100% 29.19 in 6.0 mi Calm Calm - 0.10 in Rain Light Rain
11:53 PM 34.0 °F - 33.1 °F 96% 29.19 in 3.0 mi Calm Calm - 0.12 in Rain Rain